Flag for U.S.A. Weather past 2 weeks in New City, New York, U.S.A.

Now
84 °F

Scattered clouds.


Feels Like: 87 °F
Forecast: 71 / 89 °F
Wind: 7 mph from West

Location: Westchester County Airport

Current Time: Jul 22, 2014 at 8:06:21 PM

Latest Report: Jul 22, 2014 at 12:56 PM


Visibility: 10 mi

Pressure: 30.11 "Hg

Humidity: 57%

Dew point: 67 °F

Location of New CityLocation

Historic Weather in New City — Graph

°F

New City temperature yesterday

Maximum temperature yesterday: 81 °F (at 2:56 PM)
Minimum temperature yesterday: 61 °F (at 4:56 AM)
Average temperature yesterday: 71 °F

Past Weeks' High & Low Weather Summary

 TemperatureHumidityPressure
High89 °F (Jul 8, 1:56 PM)100% (Jul 16, 1:58 AM)30.24 "Hg (Jul 16, 1:58 AM)
Low59 °F (Jul 18, 4:56 AM)36% (Jul 18, 3:56 PM)29.67 "Hg (Jul 8, 7:56 PM)
Average73 °F72%30.00 "Hg
* Reported Jul 7 12:56 PM — Jul 22 12:56 PM, New City, Weather by CustomWeather, © 2014

Note: Actual official high and low records may vary slightly from our data, if they occured in-between our weather recording intervals... More about our weather records

Advertising

New City weather history for previous 24 hours

 ConditionsComfort  
Time TempWeatherWind HumidityBarometerVisibility
12:56 PM
Jul 22
84 °FScattered clouds.7 mph57%30.11 "Hg10 mi
11:56 AM82 °FSunny.7 mph58%30.13 "Hg10 mi
10:56 AM81 °FPassing clouds.3 mph62%30.14 "Hg10 mi
9:56 AM78 °FSunny.5 mph66%30.14 "Hg10 mi
8:56 AM75 °FSunny.5 mph71%30.16 "Hg10 mi
7:56 AM71 °FSunny.5 mph81%30.16 "Hg9 mi
6:56 AM68 °FSunny.3 mph87%30.16 "Hg9 mi
5:56 AM67 °FClear.3 mph87%30.15 "Hg8 mi
4:56 AM67 °FClear.No wind87%30.14 "Hg10 mi
3:56 AM67 °FClear.3 mph85%30.14 "Hg10 mi
2:56 AM68 °FClear.No wind82%30.14 "Hg10 mi
1:56 AM66 °FClear.No wind87%30.15 "Hg10 mi
12:56 AM67 °FClear.No wind87%30.15 "Hg10 mi
11:56 PM
Jul 21
67 °FClear.No wind87%30.16 "Hg10 mi
10:56 PM69 °FPassing clouds.No wind81%30.16 "Hg10 mi
9:56 PM69 °FPassing clouds.3 mph79%30.16 "Hg10 mi
8:56 PM71 °FSunny.3 mph73%30.15 "Hg10 mi
Weather by CustomWeather, © 2014

See weather overviewHow to use our weather pages